Fullerton, CA

2:03 AM PDT on October 24, 2017 (GMT -0700)
Fullerton Municipal

Weather History for KFUL - February, 2014

Change the Weather History Date:

Sunday, February 23, 2014

  Actual Average Record
Temperature  
Mean Temperature 61 °F 59 °F  
Max Temperature 75 °F 69 °F 84 °F (2016)
Min Temperature 47 °F 49 °F 39 °F (2006)
Degree Days  
Heating Degree Days 4 7  
Month to date heating degree days 102 173  
Since 1 July heating degree days 485 890  
Cooling Degree Days 0 0  
Month to date cooling degree days 6 0  
Year to date cooling degree days 20 4  
Growing Degree Days 10 (Base 50)    
Moisture  
Dew Point 49 °F    
Average Humidity 67    
Maximum Humidity 100    
Minimum Humidity 33    
Precipitation  
Precipitation 0.00 in 0.13 in 0.45 in (2005)
Month to date precipitation 0.23 2.72  
Year to date precipitation 0.25 5.75  
Since 1 July precipitation 1.56  
Snow  
Snow 0.00 in - - ()
Month to date snowfall 0.0  
Year to date snowfall 0.0  
Snow Depth 0.00 in    
Sea Level Pressure  
Sea Level Pressure 29.95 in    
Wind  
Wind Speed 2 mph (South)    
Max Wind Speed 9 mph    
Max Gust Speed 14 mph    
Visibility 5 miles    
Events Fog    
T = Trace of Precipitation, MM = Missing Value Source: NWS Daily Summary

Daily Weather History Graph

Daily Weather History Graph

Search for Another Location

Airport or City:

Trip Planner

Search our weather history database for the weather conditions in past years. The results will help you decide how hot, cold, wet, or windy it might be!

Date:

Astronomy

Feb. 23, 2014 Rise Set
Actual Time 6:27 AM PST 5:43 PM PST
Civil Twilight 6:02 AM PST 6:08 PM PST
Nautical Twilight 5:33 AM PST 6:37 PM PST
Astronomical Twilight 5:04 AM PST 7:06 PM PST
Moon 1:22 AM PST (2/23) 11:58 AM PST (2/23)
Length of Visible Light 12h 06m
Length of Day
11h 15m
Last Quarter, 38% of the Moon is Illuminated
Feb 23
Last Quarter
Mar 1
New
Mar 8
First Quarter
Mar 16
Full
Mar 23
Last Quarter

Hourly Weather History & Observations

Time (PST) Temp. Dew Point Humidity Pressure Visibility Wind Dir Wind Speed Gust Speed Precip Events Conditions
12:12 AM 55.0 °F 54.0 °F 96% 29.93 in 0.2 mi Calm Calm - N/A Fog Fog
12:53 AM 55.0 °F 54.0 °F 96% 29.93 in 0.2 mi Calm Calm - N/A Fog Fog
1:53 AM 53.1 °F 52.0 °F 96% 29.92 in 1.5 mi East 3.5 mph - N/A   Overcast
2:37 AM 53.1 °F 52.0 °F 96% 29.92 in 2.0 mi Calm Calm - N/A   Overcast
2:53 AM 53.1 °F 52.0 °F 96% 29.92 in 2.0 mi Calm Calm - N/A   Overcast
3:34 AM 53.1 °F 51.1 °F 93% 29.93 in 1.8 mi Calm Calm - N/A   Overcast
3:45 AM 53.1 °F 51.1 °F 93% 29.93 in 2.0 mi Calm Calm - N/A   Overcast
3:53 AM 53.1 °F 51.1 °F 93% 29.93 in 2.0 mi Calm Calm - N/A   Overcast
4:30 AM 52.0 °F 50.0 °F 93% 29.93 in 1.8 mi Calm Calm - N/A   Overcast
4:53 AM 51.1 °F 48.9 °F 92% 29.93 in 0.8 mi Calm Calm - N/A   Overcast
5:53 AM 48.9 °F 48.0 °F 97% 29.94 in 0.2 mi Calm Calm - N/A Fog Fog
6:06 AM 48.9 °F 46.9 °F 93% 29.94 in 0.2 mi Calm Calm - N/A Fog Fog
6:26 AM 48.0 °F 46.0 °F 93% 29.95 in 1.5 mi Calm Calm - N/A   Mist
6:30 AM 48.0 °F 46.0 °F 93% 29.95 in 3.0 mi Calm Calm - N/A   Mist
6:53 AM 46.9 °F 45.0 °F 93% 29.96 in 6.0 mi Calm Calm - N/A   Clear
7:53 AM 52.0 °F 46.0 °F 80% 29.98 in 5.0 mi Calm Calm - N/A   Haze
8:53 AM 57.9 °F 42.1 °F 56% 29.98 in 7.0 mi East 3.5 mph - N/A   Unknown
9:53 AM 64.0 °F 43.0 °F 46% 29.99 in 8.0 mi Calm Calm - N/A   Unknown
10:53 AM 66.9 °F 43.0 °F 42% 29.99 in 7.0 mi South 4.6 mph - N/A   Unknown
11:53 AM 70.0 °F 48.0 °F 46% 29.97 in 7.0 mi Variable 4.6 mph - N/A   Unknown
12:53 PM 71.1 °F 44.1 °F 38% 29.94 in 10.0 mi Variable 4.6 mph - N/A   Clear
1:53 PM 73.0 °F 42.1 °F 33% 29.92 in 10.0 mi South 6.9 mph - N/A   Clear
2:53 PM 73.0 °F 43.0 °F 34% 29.90 in 10.0 mi SW 5.8 mph - N/A   Clear
3:53 PM 73.0 °F 39.9 °F 30% 29.89 in 10.0 mi SSW 6.9 mph - N/A   Clear
4:53 PM 70.0 °F 42.1 °F 36% 29.90 in 10.0 mi SW 5.8 mph - N/A   Clear
5:53 PM 64.9 °F 45.0 °F 48% 29.92 in 10.0 mi SSW 5.8 mph - N/A   Clear
6:53 PM 61.0 °F 53.1 °F 75% 29.94 in 10.0 mi SSW 8.1 mph - N/A   Clear
7:53 PM 60.1 °F 55.0 °F 83% 29.96 in 7.0 mi South 4.6 mph - N/A   Unknown
8:53 PM 59.0 °F 54.0 °F 83% 29.99 in 6.0 mi Calm Calm - N/A   Haze
9:26 PM 59.0 °F 54.0 °F 83% 29.99 in 7.0 mi Calm Calm - N/A   Mostly Cloudy
9:53 PM 59.0 °F 54.0 °F 83% 30.00 in 7.0 mi Calm Calm - N/A   Overcast
10:53 PM 59.0 °F 54.0 °F 83% 30.00 in 7.0 mi Calm Calm - N/A   Mostly Cloudy
11:53 PM 59.0 °F 54.0 °F 83% 30.00 in 6.0 mi Calm Calm - N/A   Haze